Weather History for Brisbane Airport M. O, Queensland

Change the Weather History Date:

Friday, October 25, 2013

  Actual Average Record
Temperature  
Mean Temperature 70 °F -  
Max Temperature 76 °F 80 °F - ()
Min Temperature 63 °F 64 °F - ()
Cooling Degree Days 4    
Growing Degree Days 20 (Base 50)    
Moisture  
Dew Point 58 °F    
Average Humidity 63    
Maximum Humidity 88    
Minimum Humidity 44    
Precipitation  
Precipitation 0.00 in 0.14 in - ()
Sea Level Pressure  
Sea Level Pressure 30.10 in    
Wind  
Wind Speed 10 mph ()    
Max Wind Speed 17 mph    
Max Gust Speed 30 mph    
Visibility 6.9 miles    
Events Rain    
T = Trace of Precipitation, MM = Missing Value Source: Averaged Metar Reports

Daily Weather History Graph

Daily Weather History Graph

Search for Another Location

Airport:

Trip Planner

Search our weather history database for the weather conditions in past years. The results will help you decide how hot, cold, wet, or windy it might be!

Date:

Astronomy

Oct. 25, 2013 Rise Set
Actual Time 5:02 AM AEST 6:01 PM AEST
Civil Twilight 4:38 AM AEST 6:25 PM AEST
Nautical Twilight 4:09 AM AEST 6:53 PM AEST
Astronomical Twilight 3:40 AM AEST 7:23 PM AEST
Moon 11:19 PM AEST (10/25) 9:35 AM AEST (10/25)
Length of Visible Light 13h 46m
Length of Day
12h 58m
Waning Gibbous, 68% of the Moon is Illuminated
Oct 25
Waning Gibbous
Oct 27
Last Quarter
Nov 3
New
Nov 10
First Quarter
Nov 18
Full

Hourly Weather History & Observations

Time (AEST) Temp. Dew Point Humidity Pressure Visibility Wind Dir Wind Speed Gust Speed Precip Events Conditions
12:00 AM 64 °F 61 °F 86% 29.97 in 22 mi NW 3.5 mph - -   Partly Cloudy
12:00 AM 64.4 °F 60.8 °F 88% 29.95 in - NW 3.5 mph - N/A   Clear
12:30 AM 64.4 °F 59.0 °F 83% 29.98 in - South 6.9 mph - N/A   Clear
1:00 AM 68 °F 59 °F 65% 30.00 in - South 10.4 mph - -  
1:00 AM 68.0 °F 59.0 °F 73% 29.98 in - South 10.4 mph - N/A   Clear
1:30 AM 68.0 °F 60.8 °F 78% 30.01 in 6.2 mi South 8.1 mph - N/A   Partly Cloudy
2:00 AM 68.0 °F 60.8 °F 78% 30.01 in - SSE 6.9 mph - N/A   Clear
2:30 AM 68.0 °F 60.8 °F 78% 30.01 in - SSE 10.4 mph - N/A   Clear
3:00 AM 70 °F 60 °F 62% 30.01 in 25 mi SSE 11.5 mph - -   Partly Cloudy
3:00 AM 69.8 °F 60.8 °F 73% 30.01 in - SSE 11.5 mph - N/A   Clear
3:30 AM 69.8 °F 60.8 °F 73% 30.01 in 6.2 mi SSE 12.7 mph - N/A   Partly Cloudy
4:00 AM 69 °F 60 °F 67% 30.03 in - SSE 12.7 mph - -  
4:00 AM 69.8 °F 60.8 °F 73% 30.01 in 6.2 mi SSE 12.7 mph - N/A   Partly Cloudy
4:30 AM 69.8 °F 60.8 °F 73% 30.04 in 6.2 mi SSE 11.5 mph - N/A   Partly Cloudy
5:00 AM 69.8 °F 60.8 °F 73% 30.06 in 6.2 mi SSE 11.5 mph - N/A   Scattered Clouds
5:30 AM 69.8 °F 59.0 °F 68% 30.06 in 6.2 mi SSE 10.4 mph - N/A   Scattered Clouds
6:00 AM 69 °F 60 °F 66% 30.10 in 12 mi SSE 11.5 mph - -   Partly Cloudy
6:00 AM 69.8 °F 60.8 °F 73% 30.09 in 6.2 mi SSE 11.5 mph - N/A   Mostly Cloudy
6:30 AM 69.8 °F 60.8 °F 73% 30.09 in 6.2 mi SSE 10.4 mph - N/A   Mostly Cloudy
7:00 AM 71 °F 59 °F 57% 30.13 in - SE 10.4 mph - -  
7:00 AM 69.8 °F 59.0 °F 68% 30.12 in 6.2 mi SE 10.4 mph 21.9 mph N/A Rain Light Rain Showers
7:30 AM 71.6 °F 59.0 °F 64% 30.12 in 6.2 mi SE 13.8 mph - N/A   Mostly Cloudy
8:00 AM 73.4 °F 59.0 °F 61% 30.12 in 6.2 mi SE 15.0 mph - N/A   Mostly Cloudy
8:30 AM 73.4 °F 57.2 °F 57% 30.15 in 6.2 mi SE 13.8 mph - N/A   Mostly Cloudy
9:00 AM 73 °F 56 °F 45% 30.17 in 9 mi SE 16.1 mph - -   Haze
9:00 AM 73.4 °F 55.4 °F 53% 30.15 in 6.2 mi SE 16.1 mph 28.8 mph N/A   Mostly Cloudy
9:30 AM 73.4 °F 57.2 °F 57% 30.15 in 6.2 mi SE 13.8 mph - N/A   Mostly Cloudy
10:00 AM 74 °F 58 °F 48% 30.17 in - SE 16.1 mph - -  
10:00 AM 73.4 °F 59.0 °F 61% 30.15 in 6.2 mi SE 16.1 mph - N/A   Mostly Cloudy
10:30 AM 73.4 °F 59.0 °F 61% 30.15 in 6.2 mi ESE 16.1 mph - N/A   Mostly Cloudy
10:33 AM 75.2 °F 59.0 °F 57% 30.15 in 6.2 mi ESE 17.3 mph 29.9 mph N/A   Mostly Cloudy
11:00 AM 75.2 °F 59.0 °F 57% 30.15 in 6.2 mi ESE 15.0 mph - N/A   Mostly Cloudy
11:30 AM 75.2 °F 57.2 °F 53% 30.15 in 6.2 mi ESE 17.3 mph - N/A   Mostly Cloudy
12:00 PM 76 °F 58 °F 44% 30.15 in 12 mi ESE 15.0 mph - -   Haze
12:00 PM 75.2 °F 59.0 °F 57% 30.12 in 6.2 mi ESE 15.0 mph - N/A   Mostly Cloudy
12:30 PM 75.2 °F 59.0 °F 57% 30.12 in 6.2 mi ESE 16.1 mph - N/A   Mostly Cloudy
1:00 PM 75 °F 57 °F 44% 30.14 in - ESE 15.0 mph - -  
1:00 PM 75.2 °F 57.2 °F 53% 30.12 in 6.2 mi ESE 15.0 mph - N/A   Scattered Clouds
1:30 PM 75.2 °F 57.2 °F 53% 30.12 in 6.2 mi ESE 15.0 mph - N/A   Partly Cloudy
2:00 PM 75.2 °F 57.2 °F 53% 30.12 in 6.2 mi East 15.0 mph - N/A   Partly Cloudy
2:30 PM 73.4 °F 57.2 °F 57% 30.12 in 6.2 mi East 12.7 mph - N/A   Partly Cloudy
3:00 PM 73 °F 57 °F 48% 30.12 in 12 mi ESE 13.8 mph - -   Haze
3:00 PM 73.4 °F 57.2 °F 57% 30.09 in 6.2 mi ESE 13.8 mph - N/A   Scattered Clouds
3:30 PM 75.2 °F 57.2 °F 53% 30.09 in 6.2 mi East 11.5 mph - N/A   Scattered Clouds
4:00 PM 71 °F 56 °F 50% 30.12 in - East 10.4 mph - -  
4:00 PM 71.6 °F 57.2 °F 60% 30.09 in 6.2 mi East 10.4 mph - N/A   Mostly Cloudy
4:30 PM 71.6 °F 57.2 °F 60% 30.09 in 6.2 mi East 11.5 mph - N/A   Mostly Cloudy
5:00 PM 71.6 °F 55.4 °F 57% 30.12 in 6.2 mi East 11.5 mph - N/A   Mostly Cloudy
5:30 PM 69.8 °F 57.2 °F 64% 30.12 in 6.2 mi ENE 11.5 mph - N/A   Scattered Clouds
6:00 PM 70 °F 56 °F 52% 30.13 in 12 mi East 11.5 mph - -   Haze
6:00 PM 69.8 °F 55.4 °F 60% 30.12 in 6.2 mi East 11.5 mph - N/A   Partly Cloudy
6:30 PM 69.8 °F 57.2 °F 64% 30.12 in 6.2 mi East 9.2 mph - N/A   Partly Cloudy
7:00 PM 69 °F 56 °F 55% 30.15 in - East 8.1 mph - -  
7:00 PM 69.8 °F 57.2 °F 64% 30.12 in 6.2 mi East 8.1 mph - N/A   Partly Cloudy
7:30 PM 69.8 °F 57.2 °F 64% 30.12 in 6.2 mi East 8.1 mph - N/A   Partly Cloudy
8:00 PM 68.0 °F 57.2 °F 68% 30.15 in 6.2 mi East 8.1 mph - N/A   Partly Cloudy
8:30 PM 69.8 °F 57.2 °F 64% 30.15 in 6.2 mi ENE 10.4 mph - N/A   Mostly Cloudy
9:00 PM 69 °F 57 °F 56% 30.16 in 16 mi ENE 8.1 mph - -   Haze
9:00 PM 69.8 °F 57.2 °F 64% 30.15 in 6.2 mi ENE 8.1 mph - N/A   Scattered Clouds
9:30 PM 69.8 °F 57.2 °F 64% 30.15 in 6.2 mi ENE 8.1 mph - N/A   Scattered Clouds
10:00 PM 69 °F 58 °F 59% 30.16 in - ENE 5.8 mph - -  
10:00 PM 69.8 °F 57.2 °F 64% 30.15 in 6.2 mi ENE 5.8 mph - N/A   Mostly Cloudy
10:30 PM 69.8 °F 59.0 °F 68% 30.15 in 6.2 mi NE 5.8 mph - N/A   Mostly Cloudy
11:00 PM 69.8 °F 59.0 °F 68% 30.15 in 6.2 mi ENE 5.8 mph - N/A   Mostly Cloudy
11:30 PM 69.8 °F 57.2 °F 64% 30.15 in 6.2 mi ENE 5.8 mph - N/A   Mostly Cloudy